OPS 4682 DEB, 17722

Orbit data source: Space-Track

OPS 4682 DEB, 17722 is space debris in LEO originally from a launch on Sat, 03 Apr 1965 UTC launched from the Air Force Western Test Range (AFWTR). Debris objects in space refer to the collection of defunct objects orbiting the Earth. Examples of debris include non-operational satellites, rocket bodies, and fragments generated from explosions, collisions, or faulty payload assembly.

Loading next visibility...
Identifier
17722, 1965-027W
Orbit
LEO
Country
Flag of USUS
Related business
Manufacturer
Unknown
Mission
Spacecraft
Bus & Motor
Unknown
Mass
Unknown
Launch date (UTC)
1965-04-03 (61 years ago)
Launch vehicle
Unknown
Launch site
Air Force Western Test Range (AFWTR)
Object type
Payload
Rocket body
Debris
Shape & HBR
Unknown shape, 0.1 m
Radar Cross Section
Small (<0.1 m²)

Expand to show TLE details & history
Last TLE update: 2 days ago

TLE from 2 days ago
0 OPS 4682 DEB
1 17722U 65027W   26102.69416755  .00000671  00000-0  22386-2 0  9990
2 17722  90.2384 352.9676 0005966  48.5355 338.1848 12.98961932935856
Epoch: 2026-04-12T16:39Z
TLE epoch observation values (Epoch: 2026-04-12T16:39:36.076Z)
Latitude
26.72739°
Longitude
-97.94761°
Altitude
1,265.179 km
Speed
7.227 km/s
True Right ascension
23h 31m 23s
True Declination
26° 35' 55"
Sunlit
Object was in daylight at epoch
Visualization orbit readout
Latitude
Unknown
Longitude
Unknown
Altitude
Unknown
Speed
Unknown
Apparent Right ascension
Unknown
Apparent Declination
Unknown
Sunlit
N/A
Visualization observer readout
Local Sidereal Time
07:24:45
Azimuth
Unknown
Elevation
Unknown
Doppler factor
Unknown
Orbital elements
Apogee altitude
1,267.844 km
Perigee altitude
1,258.726 km
Semi-major axis
7,641.422 km
Eccentricity
0.0006
Inclination
90.2384°
RAAN
352.9676°
Arg. of periapsis
48.5355°
True anomaly
338.15938°
Mean anomaly
338.1848°
Eccentric anomaly
338.17209°
Mean motion
3.24924 °/min
Orbital period
110.8 mins
BSTAR
0.0022386
Loading maneuver chart data...
Computing Atmospheric mass density...
Loading historical data...
Loading historical data...
Loading historical data...
Loading historical data...
Loading historical data...
Loading historical data...
Loading historical data...

Documentation

Showing up to 5 results
|